Other Public Products
Issued by NWS Grand Forks, ND

Home | Current Version | Previous Version | Text Only | Print | Product List | Glossary Off
Versions: 1 2 3 4 5 6 7 8 9 10 11 12 13 14 15 16 17 18 19 20 21 22 23 24 25 26 27 28 29 30 31 32 33 34 35 36 37 38 39 40 41 42 43 44 45 46 47 48 49 50

000
FPUS83 KFGF 231810
OPUFGF
PRAIRIE TO PINES WEATHER ROUNDUP
NATIONAL WEATHER SERVICE EASTERN NORTH DAKOTA/GRAND FORKS ND
100 PM CDT SAT SEP 23 2017

 **SATELLITE DATA USED TO AUGMENT SKY COVER AT AUTOMATED STATIONS**
 *****  WEATHER ACROSS EASTERN NORTH DAKOTA  *****

CITY           SKY/WX    TMP DP  RH WIND       PRES   REMARKS
GRAND FORKS    CLOUDY    59  51  75 N13       30.06R
6HR MIN TEMP:  51; 6HR MAX TEMP:  59;

GRAND FORKS AF CLOUDY    59  48  67 N13G20    30.05S
GRAND CITY NWS NOT AVBL
BUXTON         NOT AVBL
DEVILS LAKE    CLOUDY    54  45  71 N13       30.09F
6HR MIN TEMP:  47; 6HR MAX TEMP:  53;

FARGO          CLOUDY    56  50  80 N8        30.06R
6HR MIN TEMP:  52; 6HR MAX TEMP:  57;

WAHPETON ARPT  CLOUDY    52  50  93 N8        30.04F
$$

 *****  WEATHER ACROSS CENTRAL AND WESTERN NORTH DAKOTA  *****

CITY           SKY/WX    TMP DP  RH WIND       PRES   REMARKS
JAMESTOWN      CLOUDY    56  47  71 N9        30.08R
6HR MIN TEMP:  49; 6HR MAX TEMP:  58;

BISMARCK       CLOUDY    53  47  79 N12       30.10F
6HR MIN TEMP:  49; 6HR MAX TEMP:  53;

MINOT          CLOUDY    53  43  68 N7        30.12F
6HR MIN TEMP:  47; 6HR MAX TEMP:  54;

MINOT AFB      PTSUNNY   54  41  62 N7        30.10F
6HR MIN TEMP:  44; 6HR MAX TEMP:  53;

GARRISON         N/A     51  41  68 VRB6      30.13S
6HR MIN TEMP:  44; 6HR MAX TEMP:  51;

WILLISTON      CLOUDY    50  41  71 N3        30.16S
6HR MIN TEMP:  45; 6HR MAX TEMP:  51;

DICKINSON      CLOUDY    48  43  82 NE5       30.11F
6HR MIN TEMP:  44; 6HR MAX TEMP:  48; 6HR PCP: TRACE;

HETTINGER      CLOUDY    46  42  86 N7        30.12R
6HR MIN TEMP:  43; 6HR MAX TEMP:  47;

$$

 *****  OTHER OBSERVATIONS NORTHEAST NORTH DAKOTA  *****

CITY           SKY/WX    TMP DP  RH WIND       PRES   REMARKS
WALHALLA       FAIR     N/A N/A N/A N8G15     30.10R
LANGDON        CLOUDY    54  50  87 NW8       30.10S
CAVALIER       MOCLDY    54  48  82 N12       30.08R
GRAFTON        CLOUDY    59  48  67 N16       30.07F
CANDO          CLOUDY    55  45  67 N9        30.13S
FORT TOTTEN      N/A     54  47  76 N5        29.95S
ROLLA          CLOUDY    50  45  81 NW12      30.13R
RUGBY          CLOUDY    54  43  66 NW8       30.12S
 ***** THE ABOVE OBSERVATIONS ARE NON NWS ARE NOT QUALITY
        CONTROLLED AND MAY MIS-REPORT RAIN FOR SNOW...
$$

 *****  OTHER OBSERVATIONS SOUTHEAST NORTH DAKOTA *****

CITY           SKY/WX    TMP DP  RH WIND       PRES   REMARKS
COOPERSTOWN    CLOUDY    57  48  72 N12G21    30.08R
VALLEY CITY    CLOUDY    57  50  77 VRB6      30.08S
OAKES          NOT AVBL
GWINNER        CLOUDY    54  50  87 N10       30.04F
SHEYENNE NWR     N/A     55  51  87 N6        29.95S
BUFFALO        NOT AVBL
WYNDMERE       NOT AVBL
 ***** THE ABOVE OBSERVATIONS ARE NON NWS ARE NOT QUALITY
       CONTROLLED AND MAY MIS-REPORT RAIN FOR SNOW...
$$

  *****  WEATHER ACROSS NORTHERN MINNESOTA  *****

CITY           SKY/WX    TMP DP  RH WIND       PRES   REMARKS
FLAG ISLAND    CLOUDY    54  52  94 NW14      29.98R
WARROAD        CLOUDY    54  52  94 NW9       30.01R
ROSEAU         CLOUDY    54  48  82 NW12      30.02R
HALLOCK          N/A     59  50  72 N16       30.05S
THF RVR FALLS  CLOUDY    54  50  86 NW10      30.06R
6HR MIN TEMP:  50; 6HR MAX TEMP:  54;

HALSTAD        NOT AVBL
FOSSTON        CLOUDY    54  50  87 W7        30.05R
BAUDETTE       CLOUDY    56  53  90 NW10      29.97F
6HR MIN TEMP:  54; 6HR MAX TEMP:  56;

WASKISH        CLOUDY    57  54  88 SW5       30.02R
CROOKSTON      CLOUDY    55  50  82 NW12      30.07R
$$
  *****  WEATHER ACROSS CENTRAL AND WEST MINNESOTA  *****

CITY           SKY/WX    TMP DP  RH WIND       PRES   REMARKS
BEMIDJI        CLOUDY    54  52  93 W5        30.03R
6HR MIN TEMP:  53; 6HR MAX TEMP:  54; 6HR PCP:  0.02;

PARK RAPIDS    LGT RAIN  56  53  90 NW5       30.02R
6HR MIN TEMP:  55; 6HR MAX TEMP:  57; 6HR PCP:  0.07;

WADENA         CLOUDY    55  55 100 NW3       30.03F
DETROIT LAKES  CLOUDY    52  50  93 N6        30.06R
MOORHEAD       CLOUDY    55  48  76 N7        30.06R
FERGUS FALLS   LGT RAIN  52  52 100 NW6       30.06R
ELBOW LAKE     LGT RAIN  54  53  97 N3        30.04S
MORRIS MN      NOT AVBL
STAPLES        CLOUDY    61  57  88 NW8       30.03R
WHEATON        RAIN      54  50  87 N9        30.04F
$$
  *****  WEATHER ELSEWHERE ACROSS MINNESOTA  *****

CITY           SKY/WX    TMP DP  RH WIND       PRES   REMARKS
DULUTH         FAIR      82  71  69 SW7       29.96R
6HR MIN TEMP:  67; 6HR MAX TEMP:  82;

INTRNTL FALLS  CLOUDY    58  54  86 SW6       29.99R
6HR MIN TEMP:  57; 6HR MAX TEMP:  62;

ELY            PTSUNNY   68  64  88 NW10G16   29.98R
CLOQUET        FAIR      82  66  57 SW8       29.96R
BRAINERD       CLOUDY    65  61  87 NW6       29.99S
6HR MIN TEMP:  64; 6HR MAX TEMP:  67;

HIBBING        CLOUDY    69  64  84 W6        29.98R
6HR MIN TEMP:  64; 6HR MAX TEMP:  72; 6HR PCP: TRACE;

ALEXANDRIA     CLOUDY    61  58  90 NW8       30.03R
6HR MIN TEMP:  57; 6HR MAX TEMP:  63;

SAINT CLOUD    PTSUNNY   81  71  71 S9        29.95F
6HR MIN TEMP:  69; 6HR MAX TEMP:  81;

MINNEAPOLIS    PTSUNNY   85  71  63 S13       29.96S HX  90
6HR MIN TEMP:  73; 6HR MAX TEMP:  85;

$$

  *****  WEATHER ACROSS SOUTH DAKOTA  *****

CITY           SKY/WX    TMP DP  RH WIND       PRES   REMARKS
SIOUX FALLS    CLOUDY    73  67  81 SE8       29.95F
6HR MIN TEMP:  62; 6HR MAX TEMP:  73;

BROOKINGS      CLOUDY    60  57  89 N13       30.00S
WATERTOWN      LGT RAIN  54  54 100 E12       29.97F
6HR MIN TEMP:  54; 6HR MAX TEMP:  56; 6HR PCP:  0.13;

HURON          CLOUDY    56  54  93 NW13      29.99R
6HR MIN TEMP:  53; 6HR MAX TEMP:  57; 6HR PCP:  0.10;

SISSETON         N/A     54  53  97 NE9G20    29.98F
ABERDEEN       CLOUDY    52  51  97 N10       30.02F
6HR MIN TEMP:  51; 6HR MAX TEMP:  53; 6HR PCP:  0.02;

MITCHELL       LGT RAIN  58  57  97 N7        29.96F
PIERRE         CLOUDY    51  48  89 N10       30.02S
6HR MIN TEMP:  49; 6HR MAX TEMP:  51; 6HR PCP: TRACE;

MOBRIDGE       CLOUDY    57  48  72 N12       30.01F
RAPID CITY     CLOUDY    46  43  87 N15       30.07R
$$

  *****  SOME WEATHER IN NEARBY STATES *****

CITY           SKY/WX    TMP DP  RH WIND       PRES   REMARKS
GLASGOW MT     CLOUDY    49  37  63 S7        30.14S
6HR MIN TEMP:  43; 6HR MAX TEMP:  49;

GREAT FALLS MT FAIR      45  36  70 SW9       30.08F
6HR MIN TEMP:  29; 6HR MAX TEMP:  45;

CHEYENNE WY    CLOUDY    46  38  73 N7        30.01S
6HR MIN TEMP:  40; 6HR MAX TEMP:  47;

SCOTTSBLUFF NE LGT RAIN  46  42  86 N8        30.01F
6HR MIN TEMP:  45; 6HR MAX TEMP:  46; 6HR PCP: TRACE;

OMAHA NE       PTSUNNY   88  67  49 S21G26    29.95F HX  91
6HR MIN TEMP:  72; 6HR MAX TEMP:  88;

DES MOINES IA  FAIR      90  66  45 S13       30.00F HX  92
6HR MIN TEMP:  71; 6HR MAX TEMP:  90;

DAVENPORT IA   FAIR      89  66  46 S8        30.08F HX  91
6HR MIN TEMP:  63; 6HR MAX TEMP:  90;

CHICAGO IL     FAIR      93  62  35 S7        30.08F HX  93
6HR MIN TEMP:  73; 6HR MAX TEMP:  93;

EAU CLAIRE WI  FAIR      86  68  54 S12       29.99F
6HR MIN TEMP:  72; 6HR MAX TEMP:  86;

LA CROSSE WI   FAIR      92  68  45 S10       30.01F HX  96
6HR MIN TEMP:  72; 6HR MAX TEMP:  92;

$$

  *****  SOME NATIONAL WEATHER *****

CITY           SKY/WX    TMP DP  RH WIND       PRES   REMARKS
LA GUARDIA NY  FAIR      83  52  34 N14       30.02F
6HR MIN TEMP:  72; 6HR MAX TEMP:  83;



USA.gov is the U.S. government's official web portal to all federal, state and local government web resources and services.